QPF
0.00 0.00 0.00 0.00 0.00 0.00 0.00 0.00 0.00 0.00 0.00 0.00 0.00 0.00 0.00 0.00 0.00 0.00 0.00 0.00 0.00 0.00 0.00 0.03 0.05 0.09 0.23 0.33 0.26 0.06 0.06 0.04 0.00 0.00 0.00 0.00 0.00 0.00
0.00 0.00 0.00 0.00 0.00 0.00 0.00 0.00 0.00 0.00 0.00 0.00 0.00 0.00 0.00 0.00 0.00 0.00 0.00 0.00 0.00 0.00 0.00 0.00 0.04 0.11 0.10 0.23 0.47 0.43 0.08 0.03 0.01 0.00 0.00 0.00 0.00 0.00
0.00 0.00 0.00 0.00 0.00 0.00 0.00 0.00 0.00 0.00 0.00 0.00 0.00 0.00 0.00 0.00 0.00 0.00 0.00 0.00 0.00 0.00 0.00 0.00 0.00 0.04 0.14 0.17 0.23 0.44 0.45 0.12 0.02 0.00 0.00 0.00 0.00 0.00
0.00 0.00 0.00 0.00 0.00 0.00 0.00 0.00 0.00 0.00 0.00 0.00 0.00 0.00 0.00 0.00 0.00 0.00 0.00 0.00 0.00 0.00 0.00 0.00 0.00 0.00 0.05 0.13 0.27 0.32 0.42 0.35 0.12 0.01 0.00 0.00 0.00 0.00
0.00 0.00 0.00 0.00 0.00 0.00 0.00 0.00 0.00 0.00 0.00 0.00 0.00 0.00 0.00 0.00 0.00 0.00 0.00 0.00 0.00 0.00 0.00 0.00 0.00 0.01 0.02 0.07 0.19 0.41 0.41 0.37 0.18 0.07 0.01 0.00 0.00 0.00
0.00 0.00 0.00 0.00 0.00 0.00 0.00 0.00 0.00 0.00 0.00 0.00 0.00 0.00 0.00 0.00 0.00 0.00 0.00 0.00 0.00 0.00 0.00 0.00 0.00 0.00 0.00 0.01 0.07 0.19 0.40 0.56 0.46 0.18 0.11 0.06 0.00 0.00
0.00 0.00 0.00 0.00 0.00 0.00 0.00 0.00 0.00 0.00 0.00 0.00 0.00 0.00 0.00 0.00 0.00 0.00 0.00 0.00 0.00 0.00 0.00 0.00 0.00 0.00 0.00 0.00 0.01 0.06 0.16 0.30 0.52 0.59 0.28 0.19 0.12 0.04
0.00 0.00 0.00 0.00 0.00 0.00 0.00 0.00 0.00 0.00 0.00 0.00 0.00 0.00 0.00 0.00 0.00 0.00 0.00 0.00 0.00 0.00 0.00 0.00 0.00 0.00 0.00 0.00 0.00 0.03 0.05 0.17 0.28 0.38 0.53 0.32 0.18 0.18
0.00 0.00 0.00 0.00 0.00 0.00 0.00 0.00 0.00 0.00 0.00 0.00 0.00 0.00 0.00 0.00 0.00 0.00 0.01 0.01 0.00 0.00 0.00 0.00 0.00 0.00 0.00 0.00 0.00 0.01 0.03 0.09 0.22 0.28 0.36 0.45 0.29 0.17
0.00 0.00 0.00 0.00 0.00 0.00 0.00 0.00 0.00 0.00 0.00 0.00 0.00 0.00 0.00 0.00 0.00 0.00 0.01 0.01 0.00 0.00 0.00 0.00 0.00 0.00 0.00 0.00 0.01 0.01 0.01 0.05 0.12 0.29 0.34 0.43 0.49 0.34
0.00 0.00 0.00 0.01 0.00 0.00 0.01 0.04 0.01 0.00 0.00 0.00 0.00 0.00 0.00 0.00 0.00 0.00 0.00 0.02 0.02 0.00 0.02 0.05 0.03 0.03 0.00 0.00 0.01 0.01 0.01 0.02 0.08 0.16 0.29 0.36 0.43 0.40
0.01 0.01 0.01 0.01 0.01 0.01 0.04 0.05 0.04 0.01 0.00 0.00 0.00 0.00 0.00 0.00 0.00 0.00 0.00 0.00 0.01 0.02 0.01 0.05 0.03 0.01 0.00 0.00 0.02 0.02 0.01 0.04 0.11 0.18 0.21 0.33 0.37 0.38
0.01 0.00 0.00 0.00 0.00 0.01 0.02 0.07 0.04 0.01 0.00 0.00 0.00 0.00 0.00 0.00 0.00 0.00 0.00 0.01 0.00 0.01 0.00 0.02 0.02 0.03 0.02 0.01 0.02 0.05 0.05 0.05 0.08 0.18 0.31 0.37 0.43 0.37
0.02 0.01 0.01 0.01 0.01 0.02 0.02 0.02 0.01 0.03 0.05 0.04 0.03 0.01 0.00 0.00 0.00 0.00 0.00 0.00 0.00 0.00 0.00 0.00 0.01 0.00 0.00 0.00 0.01 0.04 0.09 0.13 0.12 0.18 0.31 0.48 0.51 0.43
0.02 0.02 0.02 0.02 0.02 0.02 0.01 0.00 0.01 0.04 0.03 0.02 0.02 0.01 0.00 0.00 0.01 0.02 0.04 0.02 0.00 0.00 0.02 0.05 0.03 0.03 0.02 0.01 0.01 0.02 0.05 0.12 0.16 0.16 0.25 0.36 0.36 0.34
0.01 0.01 0.01 0.01 0.01 0.01 0.01 0.01 0.03 0.05 0.05 0.02 0.01 0.00 0.00 0.01 0.02 0.05 0.05 0.07 0.07 0.04 0.04 0.12 0.09 0.07 0.05 0.01 0.00 0.02 0.02 0.03 0.10 0.13 0.14 0.20 0.27 0.29
0.01 0.00 0.00 0.00 0.00 0.00 0.00 0.01 0.01 0.01 0.04 0.03 0.02 0.01 0.01 0.01 0.06 0.09 0.08 0.06 0.09 0.06 0.03 0.04 0.08 0.11 0.06 0.02 0.03 0.03 0.04 0.04 0.08 0.10 0.11 0.15 0.19 0.24
0.00 0.00 0.00 0.00 0.01 0.01 0.01 0.02 0.03 0.01 0.00 0.00 0.00 0.01 0.03 0.05 0.04 0.03 0.04 0.07 0.03 0.04 0.02 0.01 0.01 0.01 0.02 0.02 0.02 0.03 0.05 0.06 0.07 0.12 0.13 0.13 0.15 0.16
0.01 0.01 0.00 0.01 0.01 0.01 0.01 0.02 0.02 0.05 0.02 0.01 0.00 0.05 0.04 0.04 0.06 0.03 0.05 0.04 0.03 0.01 0.01 0.00 0.01 0.01 0.01 0.02 0.03 0.02 0.03 0.03 0.06 0.08 0.11 0.11 0.08 0.11
0.01 0.01 0.01 0.00 0.01 0.01 0.01 0.01 0.02 0.03 0.03 0.04 0.04 0.04 0.04 0.01 0.03 0.05 0.02 0.01 0.01 0.02 0.02 0.01 0.01 0.02 0.01 0.02 0.04 0.05 0.02 0.01 0.04 0.06 0.11 0.11 0.11 0.11
0.01 0.01 0.01 0.01 0.01 0.01 0.01 0.01 0.01 0.01 0.01 0.03 0.05 0.04 0.02 0.01 0.00 0.00 0.00 0.00 0.00 0.01 0.01 0.01 0.01 0.00 0.00 0.02 0.04 0.07 0.07 0.04 0.02 0.03 0.06 0.11 0.09 0.08
0.01 0.01 0.01 0.01 0.01 0.01 0.01 0.00 0.00 0.00 0.00 0.00 0.01 0.02 0.01 0.01 0.01 0.01 0.02 0.01 0.01 0.01 0.00 0.01 0.01 0.00 0.00 0.00 0.00 0.01 0.03 0.06 0.06 0.04 0.03 0.02 0.02 0.03
0.02 0.01 0.01 0.01 0.01 0.01 0.01 0.01 0.00 0.00 0.00 0.00 0.01 0.02 0.02 0.02 0.02 0.01 0.01 0.01 0.01 0.01 0.01 0.02 0.02 0.01 0.00 0.00 0.00 0.00 0.01 0.02 0.02 0.01 0.02 0.01 0.00 0.00
MSLP
1016.04 1015.70 1015.49 1015.24 1015.06 1014.89 1014.67 1014.57 1014.27 1013.27 1012.47 1012.39 1012.21 1011.75 1011.17 1011.17 1010.51 1010.55 1010.67 1010.59 1010.64 1010.70 1010.83 1010.83 1011.05 1011.10 1010.74 1010.65 1009.97 1009.50 1010.55 1012.08 1012.98 1013.65 1014.64 1015.50 1016.30 1016.95
1015.50 1015.33 1015.05 1014.82 1014.62 1014.43 1014.20 1013.99 1013.73 1013.24 1012.10 1012.27 1011.91 1011.49 1011.23 1010.90 1010.63 1010.25 1010.25 1010.31 1010.26 1010.27 1010.19 1010.57 1010.55 1010.49 1010.64 1010.49 1010.29 1009.14 1008.45 1009.93 1011.15 1012.28 1013.11 1014.12 1015.18 1016.02
1015.04 1014.81 1014.52 1014.31 1014.16 1013.99 1013.77 1013.48 1013.22 1012.97 1012.20 1011.70 1011.47 1011.24 1010.94 1010.72 1010.53 1010.35 1010.02 1010.05 1010.09 1010.00 1010.01 1010.04 1010.17 1010.02 1010.09 1010.01 1009.79 1009.78 1008.58 1008.37 1009.39 1010.59 1011.59 1012.59 1013.54 1014.85
1014.68 1014.49 1014.17 1013.79 1013.62 1013.52 1013.44 1013.24 1012.98 1012.74 1012.27 1011.12 1011.26 1010.94 1010.64 1010.26 1010.09 1009.98 1009.78 1009.43 1009.55 1009.59 1009.46 1009.47 1009.63 1009.77 1009.72 1009.64 1009.32 1009.46 1009.33 1007.60 1007.84 1008.83 1010.13 1010.96 1012.02 1013.03
1014.04 1013.90 1013.64 1013.50 1013.40 1013.28 1013.25 1013.08 1012.76 1012.40 1011.98 1011.29 1011.00 1010.86 1010.62 1010.24 1009.90 1009.52 1009.36 1009.24 1009.00 1008.87 1008.95 1009.07 1009.04 1009.02 1009.11 1009.42 1009.34 1008.94 1008.77 1008.55 1007.11 1007.61 1008.29 1009.57 1010.79 1011.40
1013.74 1013.72 1013.61 1013.53 1013.48 1013.36 1013.12 1012.86 1012.65 1012.48 1012.17 1011.51 1010.77 1010.59 1010.61 1010.52 1010.15 1009.80 1009.48 1008.99 1008.73 1008.41 1008.21 1008.43 1008.62 1008.53 1008.53 1008.59 1008.60 1008.49 1007.88 1008.27 1007.85 1005.90 1006.59 1008.17 1009.43 1010.39
1013.48 1013.31 1013.13 1013.01 1012.81 1012.70 1012.55 1012.16 1012.24 1012.08 1011.98 1011.52 1010.54 1010.42 1010.01 1010.35 1010.60 1010.10 1009.59 1008.87 1008.39 1008.15 1008.24 1008.23 1008.34 1008.15 1008.09 1007.98 1007.88 1007.81 1007.75 1007.20 1007.72 1007.59 1005.21 1006.61 1008.05 1009.15
1013.27 1012.84 1012.62 1012.33 1012.06 1011.79 1011.59 1011.40 1011.45 1011.35 1011.26 1010.99 1010.16 1009.98 1009.71 1009.89 1010.21 1010.31 1010.01 1009.40 1008.71 1007.97 1008.19 1008.16 1008.15 1008.04 1008.02 1007.84 1007.51 1007.31 1007.08 1006.91 1007.04 1007.32 1006.99 1005.33 1006.74 1007.94
1012.63 1012.13 1011.76 1011.43 1011.13 1010.84 1010.51 1010.25 1010.06 1010.05 1010.05 1009.92 1009.25 1009.37 1009.47 1009.48 1009.76 1009.52 1009.59 1009.72 1009.09 1008.72 1008.57 1008.27 1008.07 1008.03 1007.86 1007.79 1007.44 1006.99 1006.68 1006.11 1006.02 1005.76 1006.08 1006.94 1005.38 1006.43
1011.79 1011.26 1010.82 1010.35 1010.02 1009.84 1009.56 1009.32 1008.99 1008.76 1008.68 1008.46 1008.04 1008.07 1008.40 1008.78 1008.82 1008.86 1008.74 1008.74 1008.68 1008.74 1008.63 1008.39 1008.42 1008.05 1007.70 1007.30 1007.14 1006.58 1005.82 1005.61 1005.38 1005.03 1004.90 1006.01 1005.73 1005.01
1010.64 1010.11 1009.62 1009.19 1008.77 1008.55 1008.40 1008.19 1007.85 1007.58 1007.36 1007.08 1006.93 1006.99 1007.12 1007.44 1007.84 1008.11 1008.10 1008.31 1007.77 1008.25 1008.49 1008.42 1008.48 1008.39 1008.05 1007.23 1006.85 1006.34 1005.43 1004.75 1004.38 1004.06 1003.73 1004.45 1005.92 1004.59
1009.79 1009.10 1008.63 1008.13 1007.54 1007.27 1007.07 1006.78 1006.47 1006.28 1006.11 1005.95 1005.81 1005.85 1006.00 1006.15 1006.58 1006.79 1007.21 1007.27 1007.41 1007.29 1007.50 1008.36 1008.49 1008.62 1008.22 1007.15 1006.91 1006.37 1005.36 1004.21 1003.41 1003.46 1003.52 1003.81 1004.95 1005.02
1008.94 1008.14 1007.49 1006.91 1006.40 1006.02 1005.83 1005.62 1005.29 1005.25 1005.04 1005.03 1005.01 1005.00 1005.04 1005.08 1005.20 1005.37 1005.65 1006.12 1006.26 1006.30 1006.39 1007.23 1007.86 1008.28 1008.29 1007.66 1006.94 1006.59 1005.96 1004.98 1003.88 1003.66 1003.83 1003.98 1004.81 1004.78
1007.97 1007.14 1006.47 1005.92 1005.46 1005.07 1004.78 1004.43 1004.30 1004.22 1004.09 1003.91 1003.94 1003.96 1004.08 1004.20 1004.29 1004.36 1004.40 1004.59 1004.86 1005.15 1005.70 1005.79 1006.63 1007.62 1007.89 1007.63 1007.31 1006.89 1006.53 1005.95 1005.28 1004.61 1005.30 1005.30 1007.01 1007.61
1007.29 1006.44 1005.59 1004.74 1004.37 1004.08 1003.72 1003.41 1003.17 1002.98 1002.91 1002.98 1002.92 1002.95 1002.92 1003.10 1003.37 1003.58 1003.75 1003.89 1004.02 1004.03 1004.34 1004.69 1005.14 1006.16 1007.21 1007.13 1007.18 1007.13 1006.94 1006.77 1006.29 1006.19 1006.37 1006.80 1007.72 1008.41
1006.84 1006.08 1005.42 1004.74 1004.11 1003.67 1003.19 1002.53 1001.97 1001.46 1001.20 1001.26 1001.55 1001.81 1002.09 1002.30 1002.61 1002.65 1002.86 1002.93 1002.87 1003.52 1003.70 1003.93 1004.62 1005.55 1006.38 1006.71 1006.65 1006.78 1006.85 1006.87 1007.17 1007.42 1007.73 1008.55 1008.83 1009.33
1006.78 1006.18 1005.68 1005.08 1004.44 1003.84 1003.20 1002.37 1001.36 1000.98 1000.35 1000.50 1001.09 1001.40 1001.47 1001.63 1001.83 1001.86 1002.13 1002.27 1002.59 1003.18 1003.80 1004.12 1004.72 1005.43 1005.81 1006.53 1006.74 1006.73 1007.05 1007.18 1007.45 1008.04 1008.56 1008.69 1009.37 1009.82
1006.98 1006.73 1006.27 1005.65 1005.16 1004.47 1003.72 1002.80 1001.93 1001.04 1000.61 1000.58 1000.79 1000.94 1001.05 1001.08 1001.27 1001.59 1001.69 1001.88 1002.47 1003.12 1003.66 1004.40 1004.81 1005.92 1006.37 1006.89 1006.89 1006.95 1007.32 1007.63 1008.02 1008.44 1008.90 1008.94 1010.12 1010.59
1007.38 1007.06 1006.93 1006.29 1005.64 1005.04 1004.41 1003.67 1002.87 1002.04 1001.15 1000.86 1000.92 1000.89 1000.82 1000.81 1001.04 1001.42 1001.77 1002.12 1002.85 1003.46 1003.98 1004.32 1004.91 1005.34 1006.27 1007.16 1007.49 1007.31 1007.48 1007.98 1008.43 1009.07 1009.24 1009.49 1010.49 1011.03
1007.99 1007.63 1007.17 1006.88 1006.27 1005.72 1005.13 1004.52 1003.77 1003.03 1002.37 1001.91 1001.35 1001.43 1001.31 1001.39 1001.67 1002.00 1002.43 1002.87 1003.34 1003.89 1004.39 1004.73 1004.99 1005.30 1005.93 1006.73 1007.71 1008.27 1007.87 1008.24 1008.72 1009.35 1010.02 1010.44 1010.90 1011.39
1008.94 1008.37 1008.00 1007.42 1006.91 1006.49 1005.99 1005.45 1004.89 1004.31 1003.86 1003.30 1002.92 1002.63 1002.43 1002.28 1002.53 1002.62 1002.92 1003.37 1003.81 1004.25 1004.74 1005.17 1005.43 1005.56 1006.28 1006.95 1008.06 1008.94 1008.81 1008.68 1009.08 1009.38 1010.21 1010.61 1011.16 1011.69
1010.01 1009.49 1009.02 1008.41 1007.77 1007.17 1006.69 1006.32 1005.88 1005.37 1004.93 1004.52 1004.21 1003.93 1003.66 1003.42 1003.47 1003.56 1003.72 1004.12 1004.47 1004.92 1005.32 1005.63 1005.91 1006.09 1006.59 1007.24 1008.62 1009.33 1009.43 1009.68 1009.91 1010.31 1010.58 1010.81 1011.09 1011.51
1011.11 1010.57 1010.02 1009.47 1008.85 1008.22 1007.54 1007.13 1006.74 1006.41 1006.03 1005.72 1005.45 1005.17 1004.84 1004.66 1004.64 1004.66 1004.79 1005.01 1005.22 1005.51 1005.81 1006.13 1006.49 1006.89 1007.50 1008.24 1008.99 1009.65 1010.16 1010.49 1010.93 1011.29 1011.83 1011.76 1011.29 1011.31
Thickness
5375 5376 5377 5377 5377 5379 5382 5383 5388 5401 5416 5423 5427 5436 5445 5452 5464 5471 5476 5484 5492 5499 5506 5513 5517 5523 5533 5541 5557 5569 5563 5554 5552 5552 5551 5552 5553 5555
5361 5361 5363 5365 5366 5367 5370 5372 5376 5383 5398 5404 5409 5417 5423 5432 5443 5453 5460 5466 5474 5481 5490 5495 5503 5511 5518 5526 5537 5556 5568 5558 5552 5547 5547 5546 5546 5547
5346 5346 5348 5349 5350 5352 5354 5357 5362 5366 5375 5388 5393 5399 5406 5414 5421 5430 5440 5447 5453 5461 5469 5477 5484 5493 5501 5511 5520 5529 5543 5552 5552 5547 5544 5543 5543 5541
5330 5327 5328 5330 5329 5328 5329 5333 5337 5342 5349 5372 5372 5382 5389 5398 5405 5412 5421 5431 5437 5443 5450 5459 5466 5473 5484 5494 5506 5512 5519 5540 5541 5545 5541 5542 5538 5539
5311 5307 5307 5306 5306 5305 5304 5306 5311 5317 5323 5341 5349 5357 5365 5373 5382 5392 5401 5409 5418 5427 5431 5439 5447 5456 5464 5472 5483 5495 5506 5517 5535 5538 5542 5538 5533 5535
5291 5285 5282 5279 5276 5276 5279 5282 5284 5287 5294 5306 5324 5333 5337 5344 5352 5361 5370 5383 5396 5404 5413 5420 5426 5435 5447 5456 5468 5477 5490 5499 5510 5535 5538 5532 5529 5528
5271 5266 5263 5261 5262 5261 5262 5267 5265 5267 5270 5279 5298 5303 5317 5319 5319 5329 5341 5354 5368 5377 5385 5394 5409 5422 5426 5436 5448 5459 5470 5487 5494 5503 5534 5528 5523 5521
5254 5256 5255 5256 5257 5258 5259 5261 5261 5260 5262 5266 5279 5283 5293 5297 5297 5301 5310 5322 5339 5352 5355 5370 5378 5389 5400 5411 5427 5443 5455 5467 5478 5486 5498 5516 5517 5514
5249 5252 5254 5255 5255 5256 5258 5260 5262 5263 5264 5268 5277 5279 5282 5288 5290 5293 5295 5298 5309 5319 5325 5342 5347 5360 5372 5387 5404 5421 5434 5451 5463 5478 5486 5488 5512 5509
5248 5250 5251 5252 5252 5252 5254 5256 5259 5262 5264 5269 5276 5279 5279 5278 5281 5285 5289 5293 5298 5302 5304 5318 5315 5328 5343 5360 5378 5397 5414 5433 5448 5462 5476 5478 5488 5504
5249 5249 5249 5250 5250 5250 5251 5252 5255 5258 5262 5267 5272 5274 5276 5276 5275 5276 5281 5284 5297 5296 5294 5297 5300 5305 5311 5331 5352 5372 5394 5415 5433 5450 5467 5474 5470 5491
5246 5246 5245 5245 5247 5247 5247 5249 5252 5255 5257 5261 5264 5266 5268 5269 5268 5271 5273 5278 5283 5289 5289 5286 5287 5288 5292 5307 5326 5347 5371 5395 5415 5432 5448 5461 5462 5470
5242 5244 5243 5244 5245 5246 5246 5247 5251 5252 5255 5256 5257 5259 5260 5261 5262 5265 5268 5270 5276 5283 5285 5280 5278 5278 5280 5290 5307 5324 5344 5368 5390 5411 5427 5441 5445 5451
5241 5242 5243 5245 5246 5247 5247 5250 5251 5253 5255 5257 5257 5256 5255 5255 5254 5256 5260 5266 5271 5275 5274 5277 5276 5272 5272 5281 5294 5308 5325 5343 5363 5387 5395 5411 5407 5412
5240 5241 5244 5248 5249 5249 5251 5254 5255 5256 5256 5256 5256 5255 5254 5252 5250 5249 5249 5253 5258 5265 5269 5274 5274 5272 5270 5274 5284 5292 5309 5322 5339 5358 5372 5383 5384 5388
5240 5241 5241 5243 5245 5247 5251 5256 5260 5263 5265 5263 5259 5254 5250 5247 5244 5244 5245 5248 5253 5254 5262 5268 5269 5266 5266 5270 5277 5286 5297 5311 5321 5333 5346 5350 5359 5365
5238 5239 5238 5238 5240 5244 5249 5255 5262 5263 5268 5263 5254 5248 5245 5239 5235 5239 5240 5242 5244 5248 5251 5255 5256 5259 5263 5261 5267 5277 5287 5299 5309 5316 5327 5337 5343 5349
5236 5235 5235 5235 5236 5240 5245 5251 5257 5261 5260 5256 5249 5241 5235 5232 5232 5232 5236 5240 5240 5240 5242 5242 5246 5243 5243 5247 5256 5265 5275 5285 5295 5303 5311 5324 5323 5327
5234 5233 5231 5234 5235 5238 5241 5245 5248 5251 5255 5251 5243 5235 5231 5230 5231 5231 5232 5233 5231 5231 5232 5234 5236 5239 5241 5239 5245 5254 5265 5271 5280 5287 5298 5307 5307 5310
5232 5232 5233 5231 5234 5236 5238 5240 5242 5243 5244 5242 5240 5230 5226 5225 5225 5225 5225 5220 5224 5223 5223 5226 5231 5236 5240 5240 5239 5241 5252 5260 5265 5272 5279 5286 5291 5296
5226 5229 5228 5230 5231 5232 5233 5234 5235 5235 5232 5230 5226 5223 5220 5215 5214 5215 5215 5212 5213 5217 5219 5220 5222 5226 5227 5230 5231 5230 5237 5247 5254 5262 5266 5274 5279 5284
5218 5221 5222 5225 5227 5229 5229 5229 5229 5229 5227 5223 5218 5215 5213 5212 5210 5209 5207 5209 5207 5204 5206 5210 5214 5219 5219 5223 5218 5217 5226 5233 5241 5247 5253 5264 5272 5277
5210 5213 5216 5218 5220 5223 5226 5226 5225 5223 5222 5220 5216 5213 5210 5208 5205 5203 5201 5199 5200 5202 5204 5206 5208 5210 5209 5210 5211 5212 5214 5221 5228 5233 5237 5247 5260 5266